Regional Weather Roundup
Issued by NWS

Home | Current Version | Previous Version | Graphics & Text | Print | Product List | Glossary On
Versions: 1 2 3 4 5 6 7 8 9 10 11 12 13 14 15 16 17 18 19 20 21 22 23 24 25 26 27 28 29 30 31 32 33 34 35 36 37 38 39 40 41 42 43 44 45 46 47 48 49 50
000
ASUS43 KDMX 310607
RWRIA

WEATHER ROUNDUP FOR IOWA
NATIONAL WEATHER SERVICE DES MOINES IA
100 AM CDT THU JUL 31 2014

NOTE: "FAIR" INDICATES FEW OR NO CLOUDS BELOW 12,000 FEET WITH NO
SIGNIFICANT WEATHER AND/OR OBSTRUCTIONS TO VISIBILITY.

* - THESE STATIONS ARE NOT NWS STATIONS...THUS NOT UNDER NWS
QUALITY CONTROL.  THEY ALSO DO NOT REPORT WEATHER SUCH
AS PRECIPITATION OR FOG.

IAZ001>003-012>014-020>022-031>034-043>046-310700-
   NORTHWEST IOWA

CITY           SKY/WX    TMP DP  RH WIND       PRES   REMARKS
CARROLL *      CLOUDY    55  55 100 NW3       30.11S
CHEROKEE *     CLEAR     55  55 100 CALM      30.11F
DENISON *      CLEAR     55  55 100 SE3       30.11R
LE MARS *      CLEAR     55  55 100 SW3       30.12S
ORANGE CITY *  CLEAR     63  54  72 W3        30.12R
SHELDON *      CLEAR     54  52  94 CALM      30.10S
SIOUX CITY     CLEAR     57  54  89 CALM      30.11S
6HR MIN TEMP:  57; 6HR MAX TEMP:  78;

SPENCER        CLEAR     57  55  93 SW3       30.11S
6HR MIN TEMP:  56; 6HR MAX TEMP:  76;

STORM LAKE *   CLEAR     63  57  82 W6        30.12S
$$

IAZ055>058-069>071-079>083-090>094-310700-
   SOUTHWEST IOWA

CITY           SKY/WX    TMP DP  RH WIND       PRES   REMARKS
ATLANTIC *     CLOUDY    57  54  88 CALM      30.12R
AUDUBON *      CLEAR     55  54  94 CALM      30.13S
CLARINDA *     CLEAR     55  54  94 CALM      30.13S
COUNCIL BLFS *   N/A     63  57  82 CALM      30.12R
CRESTON *      CLEAR     61  57  88 CALM      30.12S
HARLAN  *      CLEAR     55  54  94 CALM      30.16R
LAMONI         CLEAR     61  55  81 NW3       30.11S
6HR MIN TEMP:  61; 6HR MAX TEMP:  77;

RED OAK *      CLEAR     55  54  94 CALM      30.12S
SHENANDOAH *   CLEAR     57  57 100 CALM      30.13R
$$

IAZ047>049-059>061-072>074-084-310700-
   CENTRAL IOWA

CITY           SKY/WX    TMP DP  RH WIND       PRES   REMARKS
AMES           CLEAR     59  56  89 CALM      30.09S
6HR MIN TEMP:  59; 6HR MAX TEMP:  76;

ANKENY *       CLEAR     57  55  94 CALM      30.09F
CHARITON *     PTCLDY    63  59  88 CALM      30.10F
DES MOINES     CLEAR     67  56  67 CALM      30.09S
6HR MIN TEMP:  67; 6HR MAX TEMP:  79;

GRINNELL*      CLEAR     63  59  88 W3        30.10S
KNOXVILLE *    CLEAR     63  57  82 CALM      30.08F
MARSHALLTOWN   CLEAR     61  59  93 W5        30.09S
6HR MIN TEMP:  60; 6HR MAX TEMP:  76;

PELLA *        CLEAR     64  57  79 CALM      30.10F
PERRY *          N/A     57  55  94 W3        30.10S
$$

IAZ004>006-015-016-023>025-035-036-310700-
   NORTH CENTRAL IOWA

CITY           SKY/WX    TMP DP  RH WIND       PRES   REMARKS
ALGONA *       CLEAR     59  55  88 SW5       30.10F
CLARION *      CLEAR     57  57 100 CALM      30.10S
ESTHERVILLE    CLEAR     57  54  89 CALM      30.10S
6HR MIN TEMP:  57; 6HR MAX TEMP:  74;

FORT DODGE *   MOCLDY    59  57  94 CALM      30.11S
MASON CITY     CLEAR     59  56  89 W6        30.10S
6HR MIN TEMP:  58; 6HR MAX TEMP:  76;

FOREST CITY *  CLEAR     54  54 100 CALM      30.10S
IOWA FALLS *     N/A     59  57  94 W3        30.10F
$$

IAZ007>011-017>019-026>030-037>042-050>054-066-310700-
   NORTHEAST IOWA

CITY           SKY/WX    TMP DP  RH WIND       PRES   REMARKS
CEDAR RAPIDS   CLEAR     61  59  93 SW5       30.07S
6HR MIN TEMP:  61; 6HR MAX TEMP:  76;

CHARLES CITY * CLEAR     61  57  88 W6        30.09S
CLINTON *      CLEAR     57  55  94 W6        30.09S
DECORAH *      CLEAR     63  59  88 CALM      30.06S
DUBUQUE        CLEAR     59  58  96 SW3       30.07S
6HR MIN TEMP:  59; 6HR MAX TEMP:  73;

MONTICELLO *   CLEAR     57  57 100 CALM      30.06S
OELWEIN *      CLEAR     63  59  88 NW6       30.08S
WATERLOO       CLEAR     61  58  90 CALM      30.07S
6HR MIN TEMP:  60; 6HR MAX TEMP:  77;

$$

IAZ064-065-067-068-078-310700-
   EAST CENTRAL IOWA

CITY           SKY/WX    TMP DP  RH WIND       PRES   REMARKS
DAVENPORT      CLEAR     58  57  97 CALM      30.07S
6HR MIN TEMP:  58; 6HR MAX TEMP:  75;

IOWA CITY      CLEAR     65  61  87 CALM      30.09R
6HR MIN TEMP:  64; 6HR MAX TEMP:  78;

MT. PLEASANT * CLEAR     61  59  93 W3        30.08F
MUSCATINE *    CLEAR     64  59  82 CALM      30.07S
QUAD CITIES    CLEAR     62  58  86 CALM      30.06S
6HR MIN TEMP:  61; 6HR MAX TEMP:  78;

$$

IAZ062-063-075>077-085>089-095>099-310700-
   SOUTHEAST IOWA

CITY           SKY/WX    TMP DP  RH WIND       PRES   REMARKS
BURLINGTON     CLEAR     63  60  90 NW5       30.07S
6HR MIN TEMP:  63; 6HR MAX TEMP:  76;

FAIRFIELD *    CLEAR     61  59  94 W6        30.09S
FORT MADISON * CLEAR     64  63  94 W3        30.09S
KEOKUK *       CLEAR     63  61  94 W3        30.08S
OSKALOOSA *      N/A     61  59  92 W6        30.09F
CENTERVILLE *  CLEAR     55  55 100 CALM      30.12S
OTTUMWA        CLEAR     59  57  93 W3        30.09R
6HR MIN TEMP:  58; 6HR MAX TEMP:  76;

WASHINGTON *   CLEAR     63  61  94 W5        30.08S
$$

ABBREVIATIONS USED IN REMARKS
   TC - TEMPERATURES IN CELSIUS
  WCI - WIND CHILL INDEX
   HX - HEAT INDEX
  VSB - VISIBILITY
$$



USA.gov is the U.S. government's official web portal to all federal, state and local government web resources and services.